sat.trackr.live / text

‹ back to catalog

LEO EXPRESS 2

NORAD 62673 · 2025-009BS

PAYLOAD ACTIVE UNKNOWN

§ Identity

Operator
Country
US
Launch date
2025-01-14
Launch site
AFWTR
Launch vehicle
Mass (kg)
RCS (m²)

External: N2YO · Heavens-Above · Gunter

§ Orbital elements

Epoch: 2026-05-25T03:53:56.943168Z

Period
94.38 min
Inclination
97.4419°
Eccentricity
0.0004672
Mean motion
15.25680419 rev/d
Perigee alt
485.5 km
Apogee alt
492.0 km
Semi-major
6,866.9 km
B*
2.5721e-4
RAAN
219.3130°
Arg perigee
111.0737°
Mean anomaly
249.1001°
Rev number
13,308

§ Raw data

LEO EXPRESS 21 62673U 25009BS  26145.16246462  .00006479  00000+0  25721-3 0  99942 62673  97.4419 219.3130 0004672 111.0737 249.1001 15.25680419133081

JSON: /api/v1/satellites/62673 · /tle

For live sub-satellite position, see the globe view (requires WebGL).

§ Visibility from observer

Set your observer location to see the next 7 days of passes ≥ 10°. The values pass through the URL so the page stays shareable.

No JS? Fill the form by hand. The geolocation button needs JavaScript.

§ Radio — SatNOGS DB

ModeDescriptionDownlinkUplink
FM Mode S - Transmitter 2.221 GHz
FM Mode X - Transmitter 8.495 GHz

2 transmitters · refreshed weekly from db.satnogs.org